This demonstration page uses our WeatherBlox Daily Observations layout. Learn more.

Left ArrowRight Arrow

31.31129, -92.44514

Hourly Observations for August 5, 2022

Temp ( °F °C ) Dew Point ( °F °C ) Humidity (%) Winds ( mph kmh ) Pressure ( in mb ) Visibility ( mi km ) Precip ( " mm )
12:53 am 00:53 Clear 76 24.4 73 22.8 91 91 Calm 30.01 1016 10 16 0.00 0.00
1:53 am 01:53 Clear 76 24.4 73 22.8 91 91 SE 5 7 30.01 1016 10 16 0.00 0.00
2:53 am 02:53 Clear 76 24.4 73 22.8 91 91 ESE 7 11 30.00 1016 10 16 0.00 0.00
3:15 am 03:15 Partly Cloudy 76 24.4 73 22.8 91 91 SE 6 9 29.99 1015 9 14 0.00 0.00
3:53 am 03:53 Mostly Cloudy 76 24.4 73 22.8 91 91 SSE 6 9 29.99 1016 7 11 0.00 0.00
4:02 am 04:02 Mostly Cloudy with Mist and Fog 76 24.4 73 22.8 91 91 Calm 29.99 1015 6 10 0.00 0.00
4:53 am 04:53 Cloudy with Mist and Fog 76 24.4 73 22.8 91 91 SSE 6 9 30.00 1016 3 5 0.00 0.00
5:00 am 05:00 Cloudy with Mist and Fog 75 23.9 74 23.3 96 96 SSE 5 7 30.00 1016 3 4 0.00 0.00
5:16 am 05:16 Cloudy with Mist and Fog 75 23.9 73 22.8 94 94 SSE 6 9 29.99 1015 1 2 0.00 0.00
5:23 am 05:23 Mostly Cloudy with Fog 75 23.9 73 22.8 94 94 SSE 6 9 30.00 1016 1 1 0.00 0.00
5:45 am 05:45 Cloudy with Mist and Fog 75 23.9 74 23.3 96 96 SE 7 11 30.00 1016 2 2 0.00 0.00
5:53 am 05:53 Cloudy with Mist and Fog 75 23.9 74 23.3 96 96 ESE 6 9 30.01 1016 2 2 0.00 0.00
6:14 am 06:14 Cloudy with Mist and Fog 75 23.9 74 23.3 96 96 SE 6 9 30.00 1016 3 5 0.00 0.00
6:21 am 06:21 Cloudy with Mist and Fog 76 24.4 74 23.3 94 94 ESE 7 11 30.00 1016 2 3 0.00 0.00
6:53 am 06:53 Cloudy with Mist and Fog 75 23.9 73 22.8 94 94 SE 8 13 30.02 1017 2 3 0.00 0.00
7:04 am 07:04 Cloudy with Mist and Fog 75 23.9 74 23.3 96 96 SE 7 11 30.02 1016 1 2 0.00 0.00
7:21 am 07:21 Cloudy with Mist and Fog 76 24.4 74 23.3 94 94 SE 7 11 30.02 1016 3 4 0.00 0.00
7:32 am 07:32 Cloudy with Mist and Fog 76 24.4 74 23.3 94 94 ESE 8 13 30.02 1016 1 2 0.00 0.00
7:53 am 07:53 Cloudy with Mist and Fog 76 24.4 74 23.3 94 94 E 5 7 30.04 1017 1 2 0.00 0.00
8:13 am 08:13 Cloudy with Mist and Fog 76 24.4 74 23.3 94 94 ESE 7 11 30.03 1017 2 3 0.00 0.00
8:38 am 08:38 Cloudy with Mist and Fog 77 25 74 23.3 90 90 ESE 7 11 30.03 1017 3 5 0.00 0.00
8:53 am 08:53 Cloudy with Mist and Fog 77 25 74 23.3 90 90 SE 5 7 30.04 1017 4 6 0.00 0.00
9:14 am 09:14 Cloudy with Mist and Fog 78 25.6 74 23.3 87 87 ESE 7 11 30.04 1017 5 8 0.00 0.00
9:53 am 09:53 Cloudy 80 26.7 74 23.3 82 82 SE 5 7 30.05 1018 7 11 0.00 0.00
10:20 am 10:20 Cloudy 83 28.3 75 23.9 77 77 ESE 6 9 30.05 1017 9 14 0.00 0.00
10:53 am 10:53 Mostly Cloudy 84 28.9 75 23.9 74 74 SSE 5 7 30.06 1018 10 16 0.00 0.00
11:35 am 11:35 Mostly Cloudy 85 29.4 75 23.9 72 72 S 6 9 30.05 1017 10 16 0.00 0.00
11:53 am 11:53 Cloudy 86 30 74 23.3 67 67 S 8 13 30.06 1018 10 16 0.00 0.00
12:53 pm 12:53 Mostly Cloudy 90 32.2 73 22.8 58 58 SE 8 13 30.04 1017 10 16 0.00 0.00
1:53 pm 13:53 Mostly Cloudy 89 31.7 73 22.8 59 59 E 7 11 30.03 1017 10 16 0.00 0.00
2:53 pm 14:53 Mostly Sunny 93 33.9 72 22.2 50 50 ESE 10 17 30.01 1016 10 16 0.00 0.00
3:53 pm 15:53 Sunny 93 33.9 72 22.2 50 50 ESE 9 15 29.99 1016 10 16 0.00 0.00
4:53 pm 16:53 Sunny 93 33.9 70 21.1 47 47 SSE 12 19 29.98 1015 10 16 0.00 0.00
5:46 pm 17:46 Partly Cloudy with Nearby Thunderstorms 92 33.3 72 22.2 52 52 SSE 20 31 29.98 1015 10 16 0.00 0.00
5:53 pm 17:53 Mostly Cloudy with Thunderstorms 87 30.6 72 22.2 61 61 SSE 23 37 30.01 1016 10 16 0.00 0.00
6:26 pm 18:26 Mostly Sunny 87 30.6 72 22.2 61 61 SSE 16 26 29.98 1015 10 16 0.00 0.00
6:53 pm 18:53 Sunny 87 30.6 72 22.2 61 61 SSE 14 22 30.00 1016 10 16 0.00 0.00
7:53 pm 19:53 Sunny 84 28.9 74 23.3 72 72 ESE 10 17 30.01 1016 10 16 0.00 0.00
8:53 pm 20:53 Clear 82 27.8 74 23.3 77 77 SE 8 13 30.02 1017 10 16 0.00 0.00
9:53 pm 21:53 Clear 82 27.8 73 22.8 74 74 SE 10 17 30.03 1017 10 16 0.00 0.00
10:53 pm 22:53 Clear 81 27.2 73 22.8 77 77 SSE 10 17 30.04 1017 10 16 0.00 0.00
11:53 pm 23:53 Clear 79 26.1 73 22.8 82 82 SE 8 13 30.04 1017 10 16 0.00 0.00

Powered by AerisWeather